Miscellaneous Local Product
Issued by NWS North Platte, NE

Home | Current Version | Previous Version | Text Only | Print | Product List | Glossary On
Versions: 1 2 3 4 5 6 7 8 9 10 11 12 13 14 15 16 17 18 19 20 21 22 23 24 25 26 27 28 29 30 31 32 33 34 35 36 37 38 39 40 41 42 43 44 45 46 47 48 49 50
000
AXUS43 KLBF 190810
MISLBF


WESTERN AND NORTH CENTRAL NEBRASKA HOURLY WEATHER ROUNDUP
NATIONAL WEATHER SERVICE NORTH PLATTE NE
300 AM CDT FRI SEP 19 2014

***STATIONS NOT REPORTING VARIABLES SUCH AS SKY/WEATHER OR
PRESSURE ARE PROVIDED BY THE NEBRASKA DEPARTMENT OF
ROADS...RAWS...AND APRS NETWORKS...AND ARE NOT UNDER
NATIONAL WEATHER SERVICE QUALITY CONTROL***

...OBSERVATIONS IN AND NEAR THE EASTERN PANHANDLE OF NEBRASKA...

CITY           SKY/WX    TMP DP  RH WIND       PRES   REMARKS
PINE RIDGE     PTCLDY    65  61  87 S15G22    29.76F
CHADRON        PTCLDY    69  58  67 SW10      29.74S
ALLIANCE       CLEAR     57  55  93 S8        29.84S
SIDNEY         CLEAR     63  51  65 SW15      29.90F
WHITECLAY        N/A     64  59  82 S18         N/A
RUSHVILLE        N/A     60  58  95 SW14        N/A
CRESCENT LAKE    N/A     60  60  99 S6          N/A
LISCO            N/A     65  60  81 E8          N/A
BIG SPRINGS      N/A     61  60  95 CALM        N/A
$$

...OBSERVATIONS IN NORTH CENTRAL NEBRASKA...

CITY           SKY/WX    TMP DP  RH WIND       PRES   REMARKS
VALENTINE      CLEAR     63  61  93 S9        29.78F
THEDFORD       CLOUDY    64  63  97 S13       29.84F FOG
AINSWORTH      CLOUDY    65  64  96 S15       29.80F
O`NEILL        CLOUDY    67  65  91 S16G22    29.83F
ORD            CLOUDY    66  63  90 S14G20    29.86F
BROKEN BOW     CLEAR     64  61  90 S9        29.86F
SPRINGVIEW       N/A     66  63  89 S3          N/A
ROSE             N/A     67  67  99 E16         N/A
NEWPORT          N/A     67  65  94 S18         N/A
COMSTOCK         N/A     71  70  97 S17         N/A
CHAMBERS         N/A     66  64  93 SW13G24     N/A
$$

...OBSERVATIONS IN SOUTHWEST NEBRASKA AND FAR NORTHEAST COLORADO...

CITY           SKY/WX    TMP DP  RH WIND       PRES   REMARKS
WRAY           FAIR      66  57  71 SW12      29.89F
HOLYOKE        FAIR      61  55  82 SW7       29.89S
IMPERIAL       CLEAR     60  56  86 CALM      29.87F
OGALLALA       CLOUDY    60  60  98 SW3       29.87F FOG
NORTH PLATTE   FOG       58  58 100 E7        29.86F VSB 1/4
MCCOOK         FOG       58  58 100 NE3       29.88S VSB 1/4
LEXINGTON      CLEAR     64  64  97 S12       29.88S
PAXTON           N/A     58  56  95 CALM        N/A
SUTHERLAND       N/A     55  53  92 CALM        N/A
BRADY            N/A     59  58  95 CALM        N/A
GOTHENBURG       N/A     60  57  90 CALM        N/A
CALLAWAY         N/A     62  61  98 S12         N/A
$$

...SOME WEATHER OBSERVATIONS FROM AROUND THE REGION...

CITY           SKY/WX    TMP DP  RH WIND       PRES   REMARKS
DENVER         CLEAR     68  35  29 S18       29.97S
LARAMIE        PTCLDY    51  36  56 S7        30.08R
CHEYENNE       CLEAR     59  41  51 W7        29.99F
SCOTTSBLUFF    CLEAR     62  56  80 NE5       29.84F
RAPID CITY     MOCLDY    70  52  52 N22G29    29.77R
PIERRE         MOCLDY    63  60  90 SE12      29.69R
WINNER         FAIR      68  63  84 S20G30    29.72F
SIOUX FALLS    PTCLDY    61  56  83 S18       29.87F
OMAHA          CLOUDY    62  58  86 SE12      29.98F
GRAND ISLAND   CLOUDY    66  63  90 S17G25    29.91F
KANSAS CITY    PTCLDY    61  60  97 SE8       30.01F
WICHITA        CLEAR     66  62  87 S6        29.96F
HAYS           CLEAR     66  57  72 S14       29.93F
LIBERAL        CLEAR     63  55  77 SW8       30.01F
GOODLAND       CLEAR     65  58  78 S15       29.94S
$$



USA.gov is the U.S. government's official web portal to all federal, state and local government web resources and services.